Hourly Weather Baronissi

Today, 8 May, Saturday

Time Temperature Precipitation Wind Pressure Humidity
00:00 +14°C° 0 mm 1 mps 740 mmHg 78%
01:00 +14°C° 0 mm 1 mps 740 mmHg 80%
02:00 +14°C° 0 mm 1 mps 740 mmHg 79%
03:00 +14°C° 0 mm 1 mps 740 mmHg 79%
04:00 +14°C° 0 mm 1 mps 739 mmHg 78%
05:00 +15°C° 0 mm 1 mps 740 mmHg 74%
06:00 +16°C° 0 mm 1 mps 740 mmHg 70%
07:00 +18°C° 0 mm 1 mps 740 mmHg 64%
08:00 +20°C° 0 mm 1 mps 740 mmHg 59%
09:00 +22°C° 0 mm 1 mps 741 mmHg 54%
10:00 +23°C° 0 mm 1 mps 741 mmHg 49%
11:00 +24°C° 0 mm 2 mps 741 mmHg 49%
12:00 +24°C° 0 mm 2 mps 741 mmHg 48%
13:00 +25°C° 0 mm 3 mps 741 mmHg 47%
14:00 +24°C° 0 mm 2 mps 741 mmHg 51%
15:00 +23°C° 0 mm 2 mps 741 mmHg 54%
16:00 +23°C° 0 mm 2 mps 741 mmHg 57%
17:00 +22°C° 0 mm 1 mps 741 mmHg 62%
18:00 +20°C° 0 mm 1 mps 742 mmHg 67%
19:00 +19°C° 0 mm 1 mps 742 mmHg 72%
20:00 +19°C° 0 mm 1 mps 742 mmHg 75%
21:00 +18°C° 0 mm 1 mps 742 mmHg 78%
22:00 +16°C° 0 mm 1 mps 743 mmHg 81%
23:00 +16°C° 0 mm 1 mps 743 mmHg 81%

Tomorrow, 9 May, Sunday

Time Temperature Precipitation Wind Pressure Humidity
00:00 +15°C° 0 mm 1 mps 743 mmHg 82%
01:00 +15°C° 0 mm 1 mps 743 mmHg 82%
02:00 +15°C° 0 mm 1 mps 743 mmHg 82%
03:00 +15°C° 0 mm 1 mps 742 mmHg 82%
04:00 +14°C° 0 mm 1 mps 742 mmHg 82%
05:00 +16°C° 0 mm 1 mps 742 mmHg 77%
06:00 +18°C° 0 mm 1 mps 743 mmHg 72%
07:00 +19°C° 0 mm 1 mps 743 mmHg 67%
08:00 +21°C° 0 mm 1 mps 743 mmHg 61%
09:00 +23°C° 0 mm 1 mps 743 mmHg 55%
10:00 +24°C° 0 mm 1 mps 743 mmHg 50%
11:00 +25°C° 0 mm 2 mps 743 mmHg 49%
12:00 +25°C° 0 mm 2 mps 743 mmHg 47%
13:00 +26°C° 0 mm 3 mps 743 mmHg 46%
14:00 +26°C° 0 mm 2 mps 743 mmHg 47%
15:00 +25°C° 0 mm 2 mps 743 mmHg 47%
16:00 +25°C° 0 mm 2 mps 742 mmHg 48%
17:00 +23°C° 0 mm 2 mps 742 mmHg 54%
18:00 +22°C° 0 mm 1 mps 742 mmHg 60%
19:00 +20°C° 0 mm 1 mps 742 mmHg 67%
20:00 +19°C° 0 mm 1 mps 742 mmHg 67%
21:00 +19°C° 0 mm 1 mps 743 mmHg 68%
22:00 +16°C° 0 mm 0 mps 743 mmHg 69%
23:00 +18°C° 0 mm 1 mps 743 mmHg 68%

Day after tomorrow, 10 May, Monday

Time Temperature Precipitation Wind Pressure Humidity
00:00 +16°C° 0 mm 1 mps 743 mmHg 67%
01:00 +16°C° 0 mm 1 mps 743 mmHg 66%
02:00 +16°C° 0 mm 1 mps 742 mmHg 64%
03:00 +15°C° 0 mm 1 mps 742 mmHg 62%
04:00 +15°C° 0 mm 1 mps 742 mmHg 61%
05:00 +18°C° 0 mm 1 mps 742 mmHg 58%
06:00 +19°C° 0 mm 1 mps 742 mmHg 54%
07:00 +20°C° 0 mm 1 mps 742 mmHg 51%
08:00 +22°C° 0 mm 1 mps 742 mmHg 45%
09:00 +24°C° 0 mm 1 mps 742 mmHg 40%
10:00 +26°C° 0 mm 1 mps 742 mmHg 34%
11:00 +26°C° 0 mm 2 mps 742 mmHg 33%
12:00 +27°C° 0 mm 2 mps 742 mmHg 32%
13:00 +27°C° 0 mm 2 mps 742 mmHg 30%
14:00 +27°C° 0 mm 2 mps 742 mmHg 31%
15:00 +27°C° 0 mm 2 mps 741 mmHg 32%
16:00 +27°C° 0 mm 2 mps 741 mmHg 33%
17:00 +25°C° 0 mm 1 mps 741 mmHg 39%
18:00 +23°C° 0 mm 1 mps 741 mmHg 44%
19:00 +19°C° 0 mm 0 mps 741 mmHg 50%
20:00 +20°C° 0 mm 1 mps 741 mmHg 49%
21:00 +20°C° 0 mm 1 mps 741 mmHg 49%
22:00 +19°C° 0 mm 1 mps 741 mmHg 48%
23:00 +19°C° 0 mm 1 mps 740 mmHg 48%

11 May, Tuesday

Time Temperature Precipitation Wind Pressure Humidity
00:00 +19°C° 0 mm 1 mps 740 mmHg 47%
01:00 +18°C° 0 mm 1 mps 740 mmHg 47%
02:00 +18°C° 0 mm 1 mps 740 mmHg 47%
03:00 +18°C° 0 mm 1 mps 739 mmHg 47%
04:00 +16°C° 0 mm 2 mps 739 mmHg 47%
05:00 +19°C° 0 mm 1 mps 739 mmHg 46%
06:00 +20°C° 0 mm 1 mps 739 mmHg 45%
07:00 +22°C° 0 mm 1 mps 739 mmHg 44%
08:00 +24°C° 0 mm 1 mps 739 mmHg 40%
09:00 +25°C° 0 mm 1 mps 739 mmHg 35%
10:00 +27°C° 0 mm 2 mps 739 mmHg 31%
11:00 +27°C° 0 mm 2 mps 739 mmHg 32%
12:00 +27°C° 0 mm 3 mps 739 mmHg 32%
13:00 +27°C° 0 mm 3 mps 738 mmHg 33%
14:00 +27°C° 0 mm 3 mps 738 mmHg 36%
15:00 +26°C° 0 mm 3 mps 738 mmHg 39%
16:00 +25°C° 0 mm 3 mps 738 mmHg 42%
17:00 +22°C° 0 mm 3 mps 737 mmHg 49%
18:00 +21°C° 0 mm 3 mps 737 mmHg 57%
19:00 +19°C° 0 mm 3 mps 737 mmHg 65%
20:00 +18°C° 0.2 mm 3 mps 737 mmHg 73%
21:00 +18°C° 0.2 mm 4 mps 737 mmHg 81%
22:00 +17°C° 0.2 mm 4 mps 737 mmHg 89%
23:00 +17°C° 0.4 mm 4 mps 736 mmHg 88%

12 May, Wednesday

Time Temperature Precipitation Wind Pressure Humidity
00:00 +15°C° 0.4 mm 4 mps 736 mmHg 88%
01:00 +15°C° 0.4 mm 4 mps 736 mmHg 88%
02:00 +14°C° 0.2 mm 4 mps 736 mmHg 88%
03:00 +13°C° 0.2 mm 4 mps 736 mmHg 88%
04:00 +13°C° 0.2 mm 4 mps 736 mmHg 88%
05:00 +13°C° 0.2 mm 4 mps 736 mmHg 86%
06:00 +13°C° 0.2 mm 4 mps 736 mmHg 83%
07:00 +14°C° 0.2 mm 5 mps 737 mmHg 81%
08:00 +14°C° 0.2 mm 5 mps 737 mmHg 77%
09:00 +15°C° 0.2 mm 5 mps 737 mmHg 74%
10:00 +16°C° 0.2 mm 5 mps 737 mmHg 71%
11:00 +16°C° 0.2 mm 5 mps 737 mmHg 71%
12:00 +16°C° 0.2 mm 5 mps 737 mmHg 71%
13:00 +16°C° 0.2 mm 5 mps 737 mmHg 70%
14:00 +16°C° 0.2 mm 5 mps 737 mmHg 71%
15:00 +16°C° 0.2 mm 5 mps 737 mmHg 71%
16:00 +15°C° 0.2 mm 5 mps 737 mmHg 72%
17:00 +15°C° 0.1 mm 5 mps 737 mmHg 75%
18:00 +14°C° 0.1 mm 4 mps 737 mmHg 78%
19:00 +13°C° 0.1 mm 4 mps 737 mmHg 80%
20:00 +13°C° 0.1 mm 4 mps 737 mmHg 82%
21:00 +13°C° 0.1 mm 3 mps 737 mmHg 84%
22:00 +12°C° 0.1 mm 3 mps 737 mmHg 86%
23:00 +12°C° 0.1 mm 3 mps 737 mmHg 86%

13 May, Thursday

Time Temperature Precipitation Wind Pressure Humidity
00:00 +12°C° 0.1 mm 3 mps 737 mmHg 86%
01:00 +11°C° 0.1 mm 3 mps 737 mmHg 85%
02:00 +13°C° 0.2 mm 2 mps 736 mmHg 86%
03:00 +13°C° 0.2 mm 2 mps 736 mmHg 87%
04:00 +13°C° 0.2 mm 2 mps 736 mmHg 87%
05:00 +13°C° 0.2 mm 2 mps 736 mmHg 85%
06:00 +14°C° 0.2 mm 2 mps 736 mmHg 83%
07:00 +14°C° 0.2 mm 2 mps 736 mmHg 82%
08:00 +14°C° 0.2 mm 3 mps 736 mmHg 74%
09:00 +17°C° 0.2 mm 4 mps 736 mmHg 67%
10:00 +17°C° 0.2 mm 5 mps 736 mmHg 60%
11:00 +17°C° 0.2 mm 5 mps 736 mmHg 61%
12:00 +16°C° 0.2 mm 5 mps 736 mmHg 62%
13:00 +16°C° 0.2 mm 5 mps 736 mmHg 63%
14:00 +16°C° 0.3 mm 5 mps 736 mmHg 64%
15:00 +16°C° 0.3 mm 5 mps 736 mmHg 64%
16:00 +16°C° 0.3 mm 5 mps 736 mmHg 64%
17:00 +15°C° 0.1 mm 4 mps 736 mmHg 68%
18:00 +16°C° 0.1 mm 3 mps 736 mmHg 72%
19:00 +14°C° 0.1 mm 3 mps 737 mmHg 75%
20:00 +14°C° 0 mm 2 mps 737 mmHg 79%
21:00 +14°C° 0 mm 2 mps 737 mmHg 82%
22:00 +13°C° 0 mm 2 mps 737 mmHg 86%
23:00 +13°C° 0 mm 2 mps 737 mmHg 87%
Show more